SL-8 R/B

Satellite information

Favourite Embed

Satellite Type and Status

ROCKET BODYIN ORBIT

Key statistics

Satellite SL-8 R/B at a glance.

Uptime

11648

Days in orbit

Revolutions

≈ 14.4

Per day

Orbit

LEO

Low Earth Orbit

Inclination

74.0

Latest

Satellite identification and parameters

Extended collection of information and parameters for SL-8 R/B.

Object identification

Identified? True

Debris? False

Object name: SL-8 R/B

International designator: 1993-036B

Object number (NORAD): 22676

Object ID (CCSDS): 22676

Country: COMMONWEALTH OF INDEPENDENT STATES (CIS)

Current information (Y/N): Y

RCS size: LARGE

Orbital parameters

Period: 100.343 minutes

Inclination: 74.0409 deg

SMA: 7152.933 km

Apoapsis: 788.016 km

Periapsis: 761.58 km

RAAN: 311.2899 deg

Eccentricy: 0.0018479

Argument of periapsis: 350.7266 deg

Mean anomaly: 9.3542 deg

Mean motion: 14.3508146 rev/day

Mean motion (dot): 0.00000372 rev/day2

B* drag term: 0.00013933 1/REarth

Two-line elements (TLE)

Creation date: May 7, 2025, 3:14 a.m.

Reference frame: TEME

Reference center: EARTH

Epoch: May 6, 2025, 8:13 p.m. UTC

TLE line 0: 0 SL-8 R/B

TLE line 1: 1 22676U 93036B 25126.84257580 .00000372 00000-0 13933-3 0 9993

TLE line 2: 2 22676 74.0409 311.2899 0018479 350.7266 9.3542 14.35081460668005

Live tracking on map

Real-time ground track for satellite SL-8 R/B.

In-orbit conjunctions

A list of the most updated potential collisions computed for object SL-8 R/B.

Target Orbit TCA Probability of collision Miss distance Type
COSMOS 397 DEB * LEO 2025-02-14 18:07:04 0.0001811495 683.0 (m) DEBRIS
CZ-6A DEB LEO 2025-01-11 10:10:48 0.0002802525 370.0 (m) DEBRIS
CZ-6A DEB SSO 2024-12-23 23:12:08 0.0001143378 211.0 (m) DEBRIS
ORBCOMM FM 28 LEO 2024-11-26 17:36:06 0.0004206528 811.0 (m) PAYLOAD

Associated space launch

Military communications satellite. Destroyed in a collision with Iridium 33.

SL-8 R/B was lifted into orbit during the mission ‘Kosmos-3M | Strela-2M 51’, on board a Kosmos-3M space rocket.

The launch took place on June 16, 1993, 4:17 a.m. from 132/1 (132L).

For more information about the launch, click the button.

Launch to space Kosmos-3M | Strela-2M 51
Kosmos-3M | Strela-2M 51

Agency: N/A

Status: Launch Successful

Launch date: June 16, 1993, 4:17 a.m. UTC

Rocket: Kosmos-3M

Launch pad: 132/1 (132L)

Location: Plesetsk Cosmodrome, Russian Federation

...

Latest news about this satellite

There are no fresh news available about this satellite. Check back as we update our databases every day.


Newsletter sign-up

Weekly statistics, charts and insights to help you stay on top of the space industry.